Location: Jaite
(41.2884°N, 81.5737°W)
Time: 13:04:45
(UTC+00:00)

Aureole 3 - Pass Details

Date: 15 November 2025
Orbit: 371 x 1042 km, 82.5° (Epoch: 06 December)

Event Time Altitude Azimuth Distance (km) Brightness Sun altitude
Rises 10:11:45 0° 184° (S) 3,659 7.5 -23.1°
Reaches altitude 10° 10:14:25 10° 184° (S) 2,644 6.8 -22.6°
Maximum altitude 10:20:29 86° 98° (E) 841 4.1 -21.5°
Drops below altitude 10° 10:25:35 10° 9° (N) 2,231 6.4 -20.5°
Sets 10:27:42 0° 9° (N) 3,054 7.1 -20.1°
